Weather History for KVKY - December, 2013

Change the Weather History Date:

Tuesday, December 10, 2013

  Actual Average Record
Temperature  
Mean Temperature 62 °F -  
Max Temperature 73 °F - - ()
Min Temperature 51 °F - - ()
Degree Days  
Heating Degree Days 3    
Growing Degree Days 12 (Base 50)    
Moisture  
Dew Point 54 °F    
Average Humidity 84    
Maximum Humidity 100    
Minimum Humidity 67    
Precipitation  
Precipitation 0.00 in - - ()
Sea Level Pressure  
Sea Level Pressure 30.20 in    
Wind  
Wind Speed 22 mph (ENE)    
Max Wind Speed 33 mph    
Max Gust Speed 37 mph    
Visibility 10 miles    
Events      
Averages and records for this station are not official NWS values.
T = Trace of Precipitation, MM = Missing Value Source: NWS Daily Summary

Daily Weather History Graph

Daily Weather History Graph

Search for Another Location

Airport or City:

Trip Planner

Search our weather history database for the weather conditions in past years. The results will help you decide how hot, cold, wet, or windy it might be!

Date:

Astronomy

Dec. 10, 2013 Rise Set
Actual Time 6:37 AM CST 4:56 PM CST
Civil Twilight 6:11 AM CST 5:22 PM CST
Nautical Twilight 5:41 AM CST 5:51 PM CST
Astronomical Twilight 5:12 AM CST 6:20 PM CST
Moon 12:33 PM CST (12/10) 12:21 AM CST (12/10)
Length of Visible Light 11h 10m
Length of Day
10h 18m
Waxing Gibbous, 62% of the Moon is Illuminated
Dec 10
Waxing Gibbous
Dec 17
Full
Dec 25
Last Quarter
Jan 1
New
Jan 7
First Quarter

Hourly Weather History & Observations

Time (CST) Temp. Dew Point Humidity Pressure Visibility Wind Dir Wind Speed Gust Speed Precip Events Conditions
12:15 AM 73.4 °F 71.6 °F 94% 30.06 in 10.0 mi West 10.4 mph - N/A   Scattered Clouds
12:35 AM 73.4 °F 71.6 °F 94% 30.06 in 10.0 mi West 10.4 mph - N/A   Partly Cloudy
12:55 AM 73.4 °F 71.6 °F 94% 30.05 in 10.0 mi West 11.5 mph - N/A   Clear
1:15 AM 73.4 °F 71.6 °F 94% 30.05 in 10.0 mi West 15.0 mph - N/A   Clear
1:30 AM 73.4 °F 71.6 °F 94% 30.05 in 10.0 mi West 16.1 mph - N/A   Clear
1:55 AM 73.4 °F 71.6 °F 94% 30.05 in 10.0 mi West 16.1 mph - N/A   Clear
2:15 AM 73.4 °F 71.6 °F 94% 30.05 in 10.0 mi West 16.1 mph - N/A   Scattered Clouds
2:35 AM 73.4 °F 71.6 °F 94% 30.05 in 10.0 mi West 15.0 mph - N/A   Overcast
2:55 AM 73.4 °F 71.6 °F 94% 30.06 in 10.0 mi West 13.8 mph - N/A   Overcast
3:15 AM 73.4 °F 71.6 °F 94% 30.07 in 10.0 mi WNW 13.8 mph - N/A   Mostly Cloudy
3:35 AM 73.4 °F 71.6 °F 94% 30.07 in 10.0 mi WNW 12.7 mph - N/A   Mostly Cloudy
3:55 AM 73.4 °F 71.6 °F 94% 30.07 in 10.0 mi WNW 13.8 mph - N/A   Mostly Cloudy
4:15 AM 73.4 °F 71.6 °F 94% 30.07 in 10.0 mi WNW 13.8 mph - N/A   Mostly Cloudy
4:35 AM 73.4 °F 71.6 °F 94% 30.07 in 10.0 mi NW 17.3 mph - N/A   Overcast
4:55 AM 64.4 °F 62.6 °F 94% 30.08 in 2.0 mi North 29.9 mph - N/A   Overcast
5:15 AM 60.8 °F 59.0 °F 94% 30.10 in 2.0 mi NNE 28.8 mph - N/A   Overcast
5:35 AM 59.0 °F 57.2 °F 94% 30.11 in 4.0 mi NNE 33.4 mph - N/A   Overcast
5:55 AM 57.2 °F 57.2 °F 100% 30.13 in 10.0 mi NNE 31.1 mph - N/A   Overcast
6:15 AM 59.0 °F 57.2 °F 94% 30.14 in 10.0 mi NNE 27.6 mph - N/A   Overcast
6:35 AM 60.8 °F 57.2 °F 88% 30.15 in 10.0 mi NNE 28.8 mph - N/A   Overcast
6:55 AM 59.0 °F 57.2 °F 94% 30.17 in 10.0 mi NE 29.9 mph - N/A   Overcast
7:15 AM 59.0 °F 55.4 °F 88% 30.17 in 10.0 mi NNE 27.6 mph - N/A   Overcast
7:35 AM 57.2 °F 55.4 °F 94% 30.18 in 10.0 mi NNE 28.8 mph - N/A   Overcast
7:55 AM 57.2 °F 53.6 °F 88% 30.19 in 10.0 mi NE 29.9 mph - N/A   Overcast
8:15 AM 57.2 °F 53.6 °F 88% 30.20 in 10.0 mi NE 27.6 mph - N/A   Overcast
8:35 AM 57.2 °F 53.6 °F 88% 30.21 in 10.0 mi NE 32.2 mph - N/A   Mostly Cloudy
8:55 AM 57.2 °F 53.6 °F 88% 30.23 in 10.0 mi NE 29.9 mph - N/A   Overcast
9:15 AM 57.2 °F 53.6 °F 88% 30.25 in 10.0 mi NE 26.5 mph 34.5 mph N/A   Overcast
9:35 AM 57.2 °F 51.8 °F 82% 30.25 in 10.0 mi NE 28.8 mph - N/A   Overcast
9:55 AM 55.4 °F 51.8 °F 88% 30.26 in 10.0 mi NE 28.8 mph 34.5 mph N/A   Overcast
10:15 AM 55.4 °F 51.8 °F 88% 30.26 in 10.0 mi NE 26.5 mph 34.5 mph N/A   Overcast
10:35 AM 55.4 °F 51.8 °F 88% 30.26 in 10.0 mi NE 25.3 mph 32.2 mph N/A   Overcast
10:55 AM 53.6 °F 51.8 °F 94% 30.27 in 10.0 mi NE 25.3 mph 32.2 mph N/A   Mostly Cloudy
11:15 AM 53.6 °F 50.0 °F 88% 30.25 in 10.0 mi NE 29.9 mph - N/A   Overcast
11:35 AM 53.6 °F 50.0 °F 88% 30.25 in 10.0 mi ENE 29.9 mph 35.7 mph N/A   Overcast
11:55 AM 51.8 °F 48.2 °F 88% 30.25 in 10.0 mi ENE 29.9 mph - N/A   Overcast
12:15 PM 53.6 °F 48.2 °F 82% 30.24 in 10.0 mi ENE 28.8 mph 35.7 mph N/A   Overcast
12:35 PM 51.8 °F 48.2 °F 88% 30.22 in 10.0 mi NE 29.9 mph - N/A   Overcast
12:55 PM 51.8 °F 48.2 °F 88% 30.23 in 10.0 mi ENE 28.8 mph 34.5 mph N/A   Overcast
1:15 PM 51.8 °F 48.2 °F 88% 30.22 in 10.0 mi ENE 31.1 mph - N/A   Overcast
1:35 PM 51.8 °F 46.4 °F 82% 30.22 in 10.0 mi ENE 28.8 mph 35.7 mph N/A   Mostly Cloudy
1:55 PM 51.8 °F 46.4 °F 82% 30.22 in 10.0 mi ENE 29.9 mph - N/A   Mostly Cloudy
2:15 PM 51.8 °F 46.4 °F 82% 30.22 in 10.0 mi ENE 28.8 mph - N/A   Mostly Cloudy
2:35 PM 51.8 °F 46.4 °F 82% 30.22 in 10.0 mi ENE 28.8 mph - N/A   Mostly Cloudy
2:55 PM 51.8 °F 46.4 °F 82% 30.22 in 10.0 mi ENE 29.9 mph 36.8 mph N/A   Mostly Cloudy
3:15 PM 51.8 °F 46.4 °F 82% 30.23 in 10.0 mi East 31.1 mph - N/A   Mostly Cloudy
3:35 PM 51.8 °F 46.4 °F 82% 30.23 in 10.0 mi East 29.9 mph - N/A   Mostly Cloudy
3:55 PM 51.8 °F 46.4 °F 82% 30.23 in 10.0 mi East 29.9 mph - N/A   Mostly Cloudy
4:15 PM 53.6 °F 46.4 °F 77% 30.24 in 10.0 mi East 26.5 mph 35.7 mph N/A   Mostly Cloudy
4:35 PM 53.6 °F 46.4 °F 77% 30.24 in 10.0 mi East 27.6 mph - N/A   Mostly Cloudy
4:55 PM 53.6 °F 48.2 °F 82% 30.25 in 10.0 mi East 25.3 mph 33.4 mph N/A   Mostly Cloudy
5:15 PM 53.6 °F 46.4 °F 77% 30.25 in 10.0 mi East 27.6 mph 34.5 mph N/A   Mostly Cloudy
5:35 PM 53.6 °F 46.4 °F 77% 30.26 in 10.0 mi East 25.3 mph 33.4 mph N/A   Mostly Cloudy
5:55 PM 53.6 °F 46.4 °F 77% 30.26 in 10.0 mi ENE 26.5 mph 33.4 mph N/A   Mostly Cloudy
6:15 PM 55.4 °F 46.4 °F 72% 30.27 in 10.0 mi East 25.3 mph 33.4 mph N/A   Mostly Cloudy
6:35 PM 55.4 °F 46.4 °F 72% 30.27 in 10.0 mi East 25.3 mph 31.1 mph N/A   Scattered Clouds
6:55 PM 55.4 °F 44.6 °F 67% 30.28 in 10.0 mi East 27.6 mph 33.4 mph N/A   Clear
7:15 PM 55.4 °F 46.4 °F 72% 30.28 in 10.0 mi East 27.6 mph 33.4 mph N/A   Clear
7:35 PM 55.4 °F 44.6 °F 67% 30.29 in 10.0 mi East 26.5 mph 34.5 mph N/A   Unknown
7:55 PM 55.4 °F 44.6 °F 67% 30.29 in 10.0 mi East 27.6 mph 34.5 mph N/A   Clear
8:15 PM 55.4 °F 44.6 °F 67% 30.29 in 10.0 mi East 25.3 mph 35.7 mph N/A   Clear
8:35 PM 55.4 °F 44.6 °F 67% 30.29 in 10.0 mi East 25.3 mph 33.4 mph N/A   Partly Cloudy
8:55 PM 55.4 °F 46.4 °F 72% 30.29 in 10.0 mi East 26.5 mph 34.5 mph N/A   Scattered Clouds
9:15 PM 55.4 °F 46.4 °F 72% 30.29 in 10.0 mi East 27.6 mph 34.5 mph N/A   Mostly Cloudy
9:35 PM 55.4 °F 46.4 °F 72% 30.29 in 10.0 mi ESE 26.5 mph 33.4 mph N/A   Mostly Cloudy
9:55 PM 55.4 °F 46.4 °F 72% 30.29 in 10.0 mi ESE 27.6 mph - N/A   Mostly Cloudy
10:15 PM 55.4 °F 46.4 °F 72% 30.29 in 10.0 mi East 26.5 mph 33.4 mph N/A   Mostly Cloudy
10:35 PM 55.4 °F 46.4 °F 72% 30.30 in 10.0 mi ESE 27.6 mph - N/A   Mostly Cloudy
10:55 PM 55.4 °F 48.2 °F 77% 30.29 in 10.0 mi ESE 24.2 mph - N/A   Mostly Cloudy
11:15 PM 55.4 °F 48.2 °F 77% 30.28 in 10.0 mi ESE 28.8 mph 34.5 mph N/A   Mostly Cloudy
11:35 PM 57.2 °F 48.2 °F 72% 30.28 in 10.0 mi ESE 23.0 mph 31.1 mph N/A   Overcast
11:55 PM 57.2 °F 48.2 °F 72% 30.28 in 10.0 mi ESE 21.9 mph 29.9 mph N/A   Overcast